TimeEDT,TemperatureF,Dew PointF,Humidity,Sea Level PressureIn,VisibilityMPH,Wind Direction,Wind SpeedMPH,Gust SpeedMPH,PrecipitationIn,Events,Conditions,WindDirDegrees,DateUTC
12:53 AM,54.0,43.0,66,30.19,10.0,NW,5.8,-,N/A,,Clear,320,2013-03-14 04:53:00
1:53 AM,53.1,44.1,71,30.19,10.0,NW,6.9,-,N/A,,Clear,310,2013-03-14 05:53:00
2:53 AM,53.1,41.0,64,30.19,10.0,NW,6.9,-,N/A,,Clear,320,2013-03-14 06:53:00
3:53 AM,53.1,36.0,52,30.19,10.0,NNW,10.4,-,N/A,,Clear,330,2013-03-14 07:53:00
4:53 AM,52.0,30.0,43,30.20,10.0,North,13.8,24.2,N/A,,Clear,350,2013-03-14 08:53:00
5:53 AM,50.0,28.9,44,30.22,10.0,North,11.5,-,N/A,,Clear,350,2013-03-14 09:53:00
6:53 AM,48.9,28.9,46,30.25,10.0,North,10.4,-,N/A,,Clear,350,2013-03-14 10:53:00
7:53 AM,46.9,28.9,50,30.28,10.0,North,9.2,-,N/A,,Clear,350,2013-03-14 11:53:00
8:53 AM,50.0,28.0,43,30.30,10.0,North,13.8,-,N/A,,Clear,360,2013-03-14 12:53:00
9:53 AM,52.0,26.1,37,30.30,10.0,North,17.3,-,N/A,,Clear,10,2013-03-14 13:53:00
10:53 AM,55.9,26.1,32,30.30,10.0,NNE,9.2,-,N/A,,Clear,20,2013-03-14 14:53:00
11:53 AM,55.9,28.9,36,30.29,10.0,NW,5.8,-,N/A,,Clear,310,2013-03-14 15:53:00
12:53 PM,62.1,26.1,25,30.27,10.0,North,9.2,18.4,N/A,,Clear,10,2013-03-14 16:53:00
1:53 PM,64.0,27.0,25,30.25,10.0,NW,11.5,16.1,N/A,,Clear,320,2013-03-14 17:53:00
2:53 PM,64.9,24.1,21,30.22,10.0,NNW,11.5,-,N/A,,Clear,340,2013-03-14 18:53:00
3:53 PM,66.0,23.0,20,30.20,10.0,NNW,9.2,-,N/A,,Clear,330,2013-03-14 19:53:00
4:53 PM,68.0,21.9,17,30.19,10.0,NNW,9.2,-,N/A,,Clear,340,2013-03-14 20:53:00
5:53 PM,68.0,23.0,18,30.19,10.0,NNW,8.1,-,N/A,,Clear,330,2013-03-14 21:53:00
6:53 PM,66.0,26.1,22,30.20,10.0,North,8.1,-,N/A,,Clear,350,2013-03-14 22:53:00
7:53 PM,60.1,28.9,31,30.22,10.0,NE,5.8,-,N/A,,Clear,40,2013-03-14 23:53:00
8:53 PM,55.9,37.9,51,30.22,10.0,East,8.1,-,N/A,,Clear,80,2013-03-15 00:53:00
9:53 PM,52.0,39.0,61,30.26,10.0,East,5.8,-,N/A,,Clear,80,2013-03-15 01:53:00
10:53 PM,51.1,39.0,63,30.28,10.0,Calm,Calm,-,N/A,,Clear,0,2013-03-15 02:53:00
11:53 PM,45.0,39.0,80,30.29,10.0,Calm,Calm,-,N/A,,Clear,0,2013-03-15 03:53:00